Date,TemperatureHighF,TemperatureAvgF,TemperatureLowF,DewpointHighF,DewpointAvgF,DewpointLowF,HumidityHigh,HumidityAvg,HumidityLow,PressureMaxIn,PressureMinIn,WindSpeedMaxMPH,WindSpeedAvgMPH,GustSpeedMaxMPH,PrecipitationSumIn
2013-1-1,49.8,45.6,40.8,43.0,34.6,18.1,94,67,35,30.12,29.91,10,2,15,0.03
2013-1-2,40.8,38.2,34.4,39.4,30.5,21.4,96,75,54,30.24,29.98,7,1,8,0.00
2013-1-3,43.1,36.9,33.9,28.3,24.6,19.0,75,61,39,30.29,30.20,6,1,9,0.00
2013-1-4,40.0,34.5,29.2,24.1,22.3,20.3,71,61,49,30.35,30.26,15,2,19,0.00
2013-1-5,47.9,38.6,32.4,34.8,25.1,21.2,85,60,37,30.45,30.24,10,1,11,0.00
2013-1-6,46.9,42.4,36.8,34.5,32.1,29.9,80,67,57,30.26,30.10,8,1,11,0.01
2013-1-7,45.9,37.3,28.0,30.6,26.9,24.4,87,67,47,30.50,30.21,9,1,11,0.00
2013-1-8,53.0,35.2,23.0,35.6,28.7,21.4,96,79,43,30.52,30.41,4,0,5,0.00
2013-1-9,59.8,46.5,31.0,50.1,40.0,28.3,92,79,54,30.48,30.39,11,1,14,0.00
2013-1-10,57.7,49.3,42.1,38.8,35.2,30.8,77,60,37,30.59,30.46,6,0,7,0.00
2013-1-11,45.3,41.8,40.2,40.7,38.7,34.4,98,89,69,30.47,30.17,3,0,5,0.06
2013-1-12,69.7,53.1,41.2,59.8,50.3,40.6,99,91,69,30.21,30.11,5,0,5,0.01
2013-1-13,69.4,59.8,54.5,61.6,56.8,53.7,99,91,74,30.12,29.99,5,0,5,0.01
2013-1-14,63.2,55.4,48.1,59.3,53.8,47.2,98,94,85,30.24,30.03,7,0,8,0.87
2013-1-15,48.1,42.7,38.2,47.5,42.0,37.6,98,98,97,30.30,30.14,5,0,6,2.10
2013-1-16,48.8,42.2,37.9,46.3,41.1,37.3,99,96,87,30.15,29.97,7,0,10,0.47
2013-1-17,47.4,39.6,33.0,45.3,38.2,32.4,98,95,88,30.22,30.03,5,0,7,0.81
2013-1-18,38.4,33.3,28.2,32.6,27.6,24.0,94,80,60,30.56,30.22,8,1,10,0.18
2013-1-19,48.2,37.0,27.1,33.4,28.5,24.8,93,73,40,30.52,30.14,14,1,17,0.16
2013-1-20,51.5,45.0,38.6,33.8,29.0,21.1,68,54,36,30.14,30.01,13,2,21,0.14
2013-1-21,49.1,39.8,30.7,26.9,20.3,8.6,66,47,31,30.12,29.90,18,2,18,0.00
2013-1-22,30.5,23.4,19.0,10.8,2.4,-1.5,48,40,32,30.34,30.02,15,2,19,0.00
2013-1-23,32.9,25.5,18.0,20.5,8.8,-1.6,71,49,28,30.40,30.09,10,1,12,0.00
2013-1-24,36.7,26.1,16.4,24.1,10.8,1.9,74,53,33,30.58,30.03,17,2,20,0.00
2013-1-25,18.3,17.4,16.6,11.2,10.2,8.6,77,73,69,30.56,30.47,1,0,2,0.00
2013-1-26,38.7,33.3,26.0,26.7,23.9,19.8,78,68,59,30.49,30.25,12,1,14,0.13
2013-1-27,37.2,28.2,18.3,27.5,22.5,15.9,92,80,65,30.64,30.48,5,0,6,0.03
2013-1-28,55.9,40.9,31.8,48.0,36.9,26.7,96,86,69,30.52,30.21,10,0,12,0.04
2013-1-29,71.0,60.1,52.7,54.6,50.3,47.8,91,71,53,30.21,29.99,14,1,14,0.00
2013-1-30,70.9,62.0,50.9,62.5,57.2,47.3,98,85,73,29.99,29.33,19,2,19,2.47
2013-1-31,51.1,38.1,33.8,47.5,26.1,18.9,88,62,47,29.96,29.38,20,3,23,0.01
2013-2-1,39.5,25.5,20.4,29.0,10.8,5.0,70,53,41,30.43,29.82,18,2,18,0.00
2013-2-2,34.9,25.6,15.7,29.2,18.1,7.7,95,74,48,30.43,30.06,5,0,6,0.00
2013-2-3,39.6,34.7,31.2,29.5,25.5,20.1,90,70,58,30.07,29.88,15,2,21,0.01
2013-2-4,40.0,32.1,26.2,27.3,21.2,15.6,80,64,51,30.17,29.99,12,1,13,0.00
2013-2-5,50.3,43.4,31.2,37.8,33.2,25.8,83,68,56,30.00,29.92,13,1,24,0.00
2013-2-6,52.2,43.9,33.5,36.7,30.1,26.3,80,60,37,30.34,29.97,11,1,13,0.00
2013-2-7,39.0,36.1,31.9,33.1,31.0,26.5,96,82,74,30.41,30.17,4,0,5,0.00
2013-2-8,50.3,38.3,33.0,41.1,32.8,26.1,97,82,59,30.17,29.87,19,2,19,0.20
2013-2-9,47.9,36.9,28.0,26.3,19.9,13.5,76,52,25,30.41,30.11,15,2,19,0.00
2013-2-10,49.2,35.8,23.9,36.9,24.6,18.9,95,66,37,30.53,30.25,7,0,9,0.06
2013-2-11,61.6,47.3,37.5,51.3,40.5,24.4,98,80,37,30.25,29.90,24,1,24,0.04
2013-2-12,56.9,48.6,41.2,29.8,25.6,21.9,56,41,28,30.07,29.93,14,2,17,0.00
2013-2-13,44.4,42.5,39.4,42.9,36.4,27.3,97,80,54,29.97,29.64,14,0,14,0.06
2013-2-14,51.4,41.3,32.4,33.0,28.2,23.2,80,61,33,30.09,29.86,12,1,12,0.00
2013-2-15,58.9,43.3,31.4,41.0,32.8,27.9,89,69,35,30.11,29.93,11,1,13,0.04
2013-2-16,38.2,34.1,27.5,31.6,22.3,14.6,77,62,46,30.04,29.90,9,1,10,0.00
2013-2-17,30.1,25.3,20.0,18.5,9.1,4.3,85,51,36,30.31,29.97,14,2,18,0.00
2013-2-18,52.8,36.4,22.4,27.1,17.9,8.2,65,48,31,30.42,30.19,7,1,11,0.00
2013-2-19,51.9,41.8,35.0,44.2,29.3,15.3,96,64,32,30.19,29.81,16,2,17,0.06
2013-2-20,42.7,35.5,30.3,18.4,14.1,11.3,53,42,28,30.22,29.98,12,2,18,0.00
2013-2-21,49.0,36.8,27.1,23.9,18.0,14.8,60,47,29,30.33,30.17,16,1,18,0.00
2013-2-22,40.0,34.6,30.6,31.8,28.7,19.6,92,80,44,30.38,30.19,6,0,7,0.06
2013-2-23,52.7,40.8,33.7,43.7,37.2,31.6,96,87,70,30.20,29.85,6,0,6,0.00
2013-2-24,54.5,46.1,35.6,43.1,30.3,21.9,96,57,32,30.11,29.84,14,2,19,0.00
2013-2-25,42.1,34.0,27.5,27.9,24.4,22.4,85,69,51,30.25,30.11,4,0,6,0.00
2013-2-26,39.7,35.3,28.8,39.1,31.7,22.6,98,87,65,30.23,29.67,6,0,7,0.76
2013-2-27,48.7,43.5,39.3,40.8,36.0,33.4,98,76,60,29.80,29.64,11,2,17,0.01
2013-2-28,43.5,38.3,35.9,34.4,28.7,24.8,79,69,54,29.89,29.73,13,2,14,0.00
2013-3-1,40.7,38.0,36.0,29.5,27.1,23.9,72,65,58,29.96,29.85,11,2,14,0.00
2013-3-2,37.7,34.0,30.4,26.3,22.2,18.5,69,62,54,29.98,29.90,12,2,14,0.00
2013-3-3,33.8,30.2,27.9,20.1,18.1,14.2,68,60,53,30.05,29.95,13,3,16,0.00
2013-3-4,47.9,35.2,26.2,20.6,14.8,10.4,63,45,23,30.16,30.05,14,2,15,0.00
2013-3-5,49.8,39.0,33.3,36.6,28.6,18.2,96,68,45,30.13,29.69,6,0,6,0.26
2013-3-6,40.9,35.8,32.3,32.8,30.2,27.5,97,81,68,30.15,29.64,12,2,14,0.49
2013-3-7,43.0,38.4,36.4,30.0,28.3,25.6,75,67,56,30.32,30.13,15,2,16,0.01
2013-3-8,48.8,40.9,32.9,28.4,26.3,21.9,77,57,39,30.39,30.26,14,2,16,0.00
2013-3-9,59.0,41.9,26.0,34.4,29.3,23.7,92,64,35,30.43,30.29,5,0,6,0.00
2013-3-10,64.3,47.2,30.8,39.1,32.9,27.4,88,61,33,30.36,30.21,5,0,9,0.00
2013-3-11,57.5,49.2,40.0,52.7,38.8,29.4,95,68,43,30.23,29.89,7,0,7,0.00
2013-3-12,56.8,50.4,39.8,53.1,42.7,30.8,98,76,51,30.02,29.74,12,2,14,0.39
2013-3-13,45.1,39.1,31.6,32.4,26.5,17.3,75,61,43,30.21,30.00,19,2,19,0.00
2013-3-14,46.6,36.6,28.6,21.1,17.7,14.5,67,48,29,30.32,30.18,17,3,18,0.00
2013-3-15,63.4,48.3,35.5,38.5,28.2,16.5,54,46,37,30.22,29.88,16,2,17,0.00
2013-3-16,75.2,59.1,43.2,55.7,46.1,36.6,94,64,39,29.88,29.59,17,1,17,0.10
2013-3-17,57.2,44.7,36.3,50.9,42.2,35.1,97,91,79,30.23,29.85,6,0,6,0.63
2013-3-18,36.5,34.2,32.5,35.7,33.3,31.7,98,97,96,30.26,29.94,7,1,8,0.29
2013-3-19,58.6,45.9,34.1,41.5,26.4,2.4,98,56,14,30.07,29.84,15,3,18,0.00
2013-3-20,52.7,43.4,34.8,28.2,14.6,5.5,64,32,20,30.11,29.81,11,2,15,0.00
2013-3-21,38.7,31.0,26.3,28.4,15.8,9.5,69,53,38,30.05,29.82,14,3,15,0.00
2013-3-22,48.6,34.4,23.0,20.0,15.1,10.8,64,46,26,30.13,30.00,15,1,15,0.00
2013-3-23,56.4,41.4,27.6,30.6,23.9,18.3,73,52,29,30.10,29.94,10,1,10,0.00
2013-3-24,40.6,35.0,31.6,32.3,29.4,24.1,96,82,52,29.99,29.63,6,0,7,0.06
2013-3-25,40.9,35.2,30.9,33.6,29.2,24.9,97,80,56,29.83,29.58,12,2,13,0.27
2013-3-26,44.7,39.0,35.5,30.7,27.9,25.7,72,64,53,30.16,29.82,11,2,18,0.02
2013-3-27,43.8,38.5,34.1,28.7,26.2,23.9,72,61,48,30.28,30.16,10,2,13,0.00
2013-3-28,49.9,41.4,35.7,29.6,25.9,21.9,75,55,40,30.32,30.25,13,2,15,0.00
2013-3-29,58.4,43.9,31.2,30.6,27.1,22.3,80,55,28,30.36,30.20,12,1,12,0.00
2013-3-30,62.9,47.9,31.6,36.1,31.2,27.6,87,56,29,30.29,30.09,8,1,10,0.00
2013-3-31,60.3,49.5,42.6,52.7,43.1,31.5,97,80,56,30.10,29.80,6,0,9,0.12
2013-4-1,61.1,51.6,41.6,46.7,40.2,28.8,83,66,46,30.04,29.86,14,2,18,0.00
2013-4-2,53.3,42.7,32.6,29.2,20.8,13.2,75,45,22,30.22,30.04,12,2,16,0.00
2013-4-3,55.6,42.7,29.9,21.8,17.2,12.0,68,38,20,30.39,30.22,11,1,12,0.00
2013-4-4,43.9,36.0,33.0,32.7,24.3,16.6,96,66,38,30.43,30.07,5,0,7,0.09
2013-4-5,61.8,46.2,33.6,42.1,35.0,30.7,98,70,32,30.08,29.95,11,1,12,0.30
2013-4-6,63.2,49.3,33.0,39.1,33.3,29.3,90,58,35,30.29,30.08,7,1,8,0.00
2013-4-7,72.2,55.0,36.9,46.6,39.1,29.8,86,57,36,30.26,30.05,10,0,11,0.00
2013-4-8,80.9,65.6,50.9,52.6,47.8,43.5,80,56,28,30.14,29.98,10,1,15,0.00
2013-4-9,85.5,72.1,57.7,56.1,52.6,49.8,76,52,31,30.14,30.00,9,1,15,0.00
2013-4-10,89.8,77.4,64.0,59.8,55.2,45.7,70,49,22,30.04,29.85,10,2,12,0.00
2013-4-11,87.0,75.1,65.9,61.3,56.4,48.1,71,54,28,29.89,29.68,12,1,13,0.00
2013-4-12,74.5,65.1,58.0,65.0,55.0,37.8,99,74,31,29.81,29.61,14,1,15,1.26
2013-4-13,73.3,61.2,50.9,41.9,36.0,29.9,63,41,23,30.01,29.81,18,2,18,0.00
2013-4-14,79.1,65.2,49.7,47.0,38.8,33.1,65,39,23,30.10,29.98,10,1,11,0.00
2013-4-15,66.4,56.7,52.5,55.7,53.2,45.4,97,89,48,30.27,30.04,5,0,7,0.08
2013-4-16,77.6,64.6,55.9,64.4,58.3,54.0,98,82,57,30.31,30.15,8,0,9,0.00
2013-4-17,80.2,67.9,59.7,63.8,59.9,56.6,91,77,52,30.22,30.10,7,1,9,0.00
2013-4-18,79.6,68.6,59.1,65.2,59.2,54.8,96,74,50,30.14,29.94,11,1,17,0.00
2013-4-19,72.2,64.8,49.9,66.3,58.9,38.3,93,82,64,29.95,29.62,10,1,14,0.24
2013-4-20,60.4,50.4,41.8,39.1,31.5,25.7,67,50,27,30.34,29.88,15,2,20,0.00
2013-4-21,58.9,46.7,33.4,38.2,33.9,29.1,90,63,42,30.55,30.34,7,0,7,0.00
2013-4-22,62.5,48.6,33.9,37.8,33.5,25.9,94,60,27,30.53,30.32,6,1,10,0.00
2013-4-23,71.0,56.0,43.8,51.7,44.6,37.3,85,67,46,30.36,30.10,8,0,8,0.00
2013-4-24,79.2,61.4,45.9,60.2,51.4,44.5,98,73,38,30.13,29.89,14,1,16,0.01
2013-4-25,67.2,54.0,39.0,45.7,32.3,17.8,80,48,16,30.34,30.08,10,1,11,0.00
2013-4-26,69.0,54.5,37.2,42.9,37.0,29.4,86,54,33,30.48,30.33,6,0,8,0.00
2013-4-27,67.6,57.1,48.5,52.0,45.8,40.0,89,67,45,30.39,30.26,5,0,8,0.00
2013-4-28,56.8,53.8,51.9,55.6,52.3,50.2,98,95,88,30.27,30.05,6,0,9,0.12
2013-4-29,70.0,57.0,50.9,61.1,54.4,50.3,99,92,68,30.13,29.99,5,0,5,0.05
2013-4-30,69.7,61.2,56.7,60.6,56.8,54.6,98,86,65,30.24,30.05,7,0,8,0.00
2013-5-1,69.5,60.2,55.3,58.4,53.5,46.0,97,80,48,30.38,30.23,6,0,8,0.04
2013-5-2,70.4,60.3,52.1,56.1,48.5,41.3,84,66,52,30.38,30.27,7,0,7,0.00
2013-5-3,65.4,56.5,47.6,52.5,48.7,41.9,94,76,57,30.34,30.22,10,1,10,0.00
2013-5-4,65.0,54.0,46.9,51.3,45.7,41.8,84,74,52,30.26,30.14,10,1,10,0.00
2013-5-5,54.8,52.2,46.4,51.5,44.7,33.6,96,76,55,30.18,30.04,8,1,11,0.10
2013-5-6,56.4,53.7,51.4,55.8,53.1,50.5,99,98,96,30.08,29.91,7,0,7,1.17
2013-5-7,61.9,55.6,49.7,56.8,54.6,49.1,99,96,79,29.97,29.89,3,0,4,0.85
2013-5-8,58.6,53.1,49.5,56.0,52.3,48.9,99,97,89,30.03,29.95,5,0,8,0.24
2013-5-9,78.8,65.4,51.8,60.1,54.9,49.8,97,72,41,30.07,29.99,11,1,13,0.00
2013-5-10,81.7,66.5,55.0,67.3,58.6,53.1,98,78,43,30.06,29.90,13,0,17,0.41
2013-5-11,75.0,64.8,60.5,66.3,60.9,57.1,98,88,63,29.94,29.77,9,0,12,0.22
2013-5-12,62.9,56.4,46.6,57.5,41.4,32.5,87,60,34,30.08,29.83,14,2,16,0.00
2013-5-13,60.9,50.5,39.8,40.6,34.8,27.8,89,58,31,30.22,30.07,10,1,11,0.00
2013-5-14,69.0,52.9,34.6,49.8,40.2,33.3,97,67,31,30.27,30.03,9,0,10,0.01
2013-5-15,90.0,72.3,48.7,62.8,55.7,46.4,96,60,32,30.06,29.85,13,1,17,0.00
2013-5-16,82.2,74.6,66.6,62.5,58.0,52.4,80,57,44,29.98,29.87,8,1,12,0.01
2013-5-17,80.0,70.6,62.7,65.8,61.1,56.8,95,73,53,30.12,29.97,6,0,7,0.11
2013-5-18,67.0,64.4,62.8,65.4,63.4,62.1,99,97,90,30.17,30.09,3,0,3,0.54
2013-5-19,68.3,64.8,62.6,67.8,64.4,62.2,100,99,98,30.15,30.05,2,0,2,0.26
2013-5-20,77.9,69.0,62.7,72.0,67.0,62.3,100,94,72,30.11,30.00,5,0,8,0.04
2013-5-21,88.5,74.3,63.8,73.5,67.0,63.4,100,81,46,30.03,29.89,6,0,8,0.00
2013-5-22,84.0,70.5,62.9,76.8,65.2,60.1,98,84,64,29.96,29.86,7,0,7,0.27
2013-5-23,81.2,68.4,62.1,68.7,63.8,59.6,99,87,54,29.93,29.77,8,0,20,0.21
2013-5-24,64.2,57.9,50.5,60.6,47.0,35.8,90,69,42,30.22,29.83,11,2,14,0.00
2013-5-25,69.4,57.2,47.9,42.0,34.8,25.5,71,45,25,30.30,30.19,12,2,13,0.00
2013-5-26,74.1,60.9,49.8,49.4,42.8,35.8,83,55,28,30.28,30.17,7,0,8,0.00
2013-5-27,75.7,61.6,47.5,62.5,51.5,42.9,91,71,45,30.31,30.15,4,0,4,0.00
2013-5-28,85.5,70.3,54.1,70.3,60.3,52.9,98,74,40,30.22,30.09,7,0,9,0.00
2013-5-29,88.8,75.4,63.7,68.3,63.1,56.9,92,68,36,30.18,30.09,7,0,9,0.00
2013-5-30,86.5,73.4,59.7,74.2,64.3,58.0,97,75,53,30.23,30.13,7,0,7,0.00
2013-5-31,86.8,73.4,59.2,73.3,64.0,58.0,98,75,51,30.19,30.06,8,0,9,0.00
2013-6-1,88.5,75.1,61.9,73.1,64.9,60.2,97,73,52,30.09,29.95,7,0,10,0.00
2013-6-2,78.3,70.3,65.6,72.2,66.9,61.6,98,90,77,29.98,29.88,9,0,9,0.19
2013-6-3,81.3,70.1,63.4,73.1,64.6,59.8,99,84,56,29.99,29.85,7,0,9,0.01
2013-6-4,80.9,67.6,55.7,66.1,60.4,54.8,98,80,51,30.12,29.98,5,0,7,0.00
2013-6-5,72.9,66.2,59.3,67.2,62.2,56.8,98,88,68,30.16,30.04,5,0,6,0.00
2013-6-6,65.6,63.3,60.7,65.0,62.7,60.1,99,98,96,30.05,29.83,2,0,2,1.30
2013-6-7,74.2,67.5,63.9,71.7,66.0,60.5,99,95,85,29.85,29.63,6,0,7,0.27
2013-6-8,82.3,70.3,60.7,68.1,62.7,57.7,98,79,52,30.10,29.82,7,0,10,0.12
2013-6-9,85.8,72.8,63.6,73.5,67.5,62.6,99,85,58,30.16,30.03,6,0,8,0.24
2013-6-10,84.2,70.3,64.6,76.5,68.7,64.0,99,95,69,30.07,29.83,12,0,14,0.32
2013-6-11,80.3,71.9,63.8,68.3,64.8,62.8,99,80,60,29.94,29.86,11,1,15,0.16
2013-6-12,89.7,77.8,67.7,75.8,68.9,63.1,89,75,55,29.95,29.84,8,1,10,0.00
2013-6-13,89.3,78.4,66.6,74.8,70.3,59.1,94,77,55,29.84,29.56,21,2,21,0.33
2013-6-14,76.2,70.3,62.6,63.1,58.6,55.1,84,67,53,30.05,29.90,7,0,9,0.00
2013-6-15,81.8,68.4,55.2,64.5,58.5,54.0,97,74,43,30.14,30.03,8,0,10,0.00
2013-6-16,83.4,72.8,59.4,71.3,64.4,57.3,94,76,59,30.07,29.97,11,1,13,0.00
2013-6-17,86.3,74.0,66.3,75.2,68.0,64.0,98,83,61,30.03,29.89,8,0,9,0.09
2013-6-18,73.8,68.5,61.7,71.3,66.9,60.8,99,95,83,29.95,29.81,5,0,6,0.54
2013-6-19,81.7,68.1,59.1,70.2,64.3,58.5,99,89,63,30.15,29.92,6,0,9,0.31
2013-6-20,79.6,69.7,63.9,70.9,66.5,63.3,99,90,68,30.26,30.15,6,0,6,0.00
2013-6-21,83.8,71.4,59.9,71.9,65.2,58.9,99,82,58,30.29,30.19,4,0,5,0.00
2013-6-22,84.3,70.7,57.3,69.6,63.6,56.1,98,80,50,30.27,30.12,3,0,5,0.00
2013-6-23,89.0,76.2,65.6,72.9,68.0,61.7,99,78,44,30.20,30.09,7,0,8,0.00
2013-6-24,88.0,75.0,66.6,74.9,69.2,65.2,98,84,51,30.18,30.05,5,0,10,0.01
2013-6-25,86.9,76.7,67.2,75.1,70.1,66.2,98,81,58,30.10,29.96,7,0,9,0.01
2013-6-26,90.8,75.0,68.4,74.5,69.1,66.1,98,83,55,29.98,29.87,12,1,18,0.22
2013-6-27,83.0,72.9,67.5,74.4,68.8,66.2,99,88,68,29.91,29.70,13,1,13,0.02
2013-6-28,88.4,79.6,73.3,74.1,68.5,64.0,84,70,49,29.73,29.51,8,1,14,0.00
2013-6-29,85.5,75.0,66.3,72.2,66.4,62.8,91,76,52,29.71,29.57,10,0,10,0.00
2013-6-30,85.7,73.3,66.0,75.4,69.6,65.4,99,89,65,29.84,29.69,5,0,7,0.17
2013-7-1,83.2,73.4,67.8,74.1,70.0,67.1,99,90,68,29.95,29.81,7,0,7,0.02
2013-7-2,74.1,71.0,69.4,71.9,69.6,68.1,99,96,90,30.15,29.94,3,0,5,1.48
2013-7-3,76.0,71.1,69.0,75.2,70.7,68.5,100,99,96,30.23,30.12,3,0,4,1.15
2013-7-4,86.3,73.1,68.8,77.9,71.6,68.5,100,96,69,30.26,30.16,5,0,11,2.46
2013-7-5,85.7,75.2,68.0,77.1,71.7,67.6,100,90,67,30.25,30.15,6,0,8,0.01
2013-7-6,86.8,76.1,67.6,75.5,70.8,66.9,99,85,61,30.22,30.10,6,0,9,0.04
2013-7-7,84.2,73.0,68.3,76.9,70.6,67.6,99,93,70,30.15,30.05,8,0,9,0.20
2013-7-8,85.6,74.6,66.7,74.4,69.2,66.3,99,85,56,30.18,30.08,6,0,10,0.00
2013-7-9,89.6,77.4,69.1,76.7,71.4,66.1,97,84,51,30.14,30.03,4,0,5,0.00
2013-7-10,88.0,74.8,70.2,77.7,71.3,69.0,99,90,65,30.06,29.93,8,0,8,0.46
2013-7-11,83.3,74.8,69.6,75.9,71.8,69.2,100,91,72,29.95,29.86,4,0,7,0.07
2013-7-12,76.2,70.1,67.0,69.3,67.3,64.9,99,91,77,30.07,29.88,6,0,6,0.01
2013-7-13,77.5,70.7,66.1,73.1,68.9,65.0,99,94,82,30.20,30.06,4,0,4,0.21
2013-7-14,85.7,75.3,70.1,76.0,72.1,69.7,99,91,66,30.33,30.20,5,0,7,0.10
2013-7-15,90.0,77.2,68.6,75.5,71.4,68.1,100,84,53,30.34,30.24,3,0,3,0.03
2013-7-16,93.4,77.5,67.8,78.7,71.2,67.1,99,84,46,30.29,30.18,6,0,6,0.45
2013-7-17,90.2,78.1,69.8,81.5,73.8,69.4,100,88,62,30.26,30.13,3,0,4,0.00
2013-7-18,91.9,79.2,69.5,80.7,74.3,68.9,100,86,61,30.17,30.03,3,0,3,0.00
2013-7-19,92.8,79.4,69.9,78.9,72.7,69.0,99,82,51,30.08,29.93,9,0,10,0.00
2013-7-20,91.0,79.4,73.0,77.8,72.3,68.6,93,80,54,29.97,29.85,8,0,9,0.00
2013-7-21,87.5,76.9,69.7,76.2,71.9,68.4,97,85,64,29.96,29.90,7,0,8,0.00
2013-7-22,87.9,77.1,69.6,76.4,71.8,68.9,99,85,60,29.95,29.78,8,0,9,0.01
2013-7-23,86.6,77.4,71.0,74.0,70.1,67.3,97,79,58,29.80,29.71,9,0,9,0.03
2013-7-24,86.1,76.7,70.5,71.6,68.3,65.7,91,76,52,29.89,29.72,7,0,8,0.00
2013-7-25,82.9,72.8,64.4,68.6,64.4,61.1,91,76,56,30.05,29.88,5,0,6,0.00
2013-7-26,84.0,71.1,60.8,71.2,65.6,59.5,98,84,62,30.12,30.01,3,0,5,0.00
2013-7-27,71.8,69.3,66.9,71.0,68.3,66.4,99,97,91,30.05,29.93,1,0,2,0.51
2013-7-28,83.3,71.9,66.4,73.3,67.6,64.4,100,88,62,30.01,29.91,7,0,8,0.00
2013-7-29,80.9,69.0,58.7,65.3,59.8,54.5,97,75,45,30.22,30.01,7,0,8,0.00
2013-7-30,82.0,67.7,54.8,68.0,60.7,53.9,99,81,51,30.27,30.15,0,0,1,0.00
2013-7-31,74.2,67.5,65.1,68.7,65.8,63.7,99,94,73,30.17,30.02,0,0,1,0.09
2013-8-1,84.7,71.7,65.0,73.2,67.9,64.0,100,89,59,30.02,29.86,7,0,7,0.09
2013-8-2,83.5,71.8,62.7,69.4,64.3,61.8,99,79,51,30.04,29.93,5,0,7,0.00
2013-8-3,85.2,71.9,62.2,72.6,66.4,61.0,97,84,56,30.02,29.93,8,0,9,0.00
2013-8-4,82.1,72.3,63.6,67.7,63.1,57.1,98,76,44,30.08,29.93,8,0,8,0.00
2013-8-5,79.1,69.1,58.7,67.3,62.7,57.1,97,81,56,30.12,30.01,7,0,7,0.00
2013-8-6,84.7,73.0,64.7,73.8,68.0,63.5,98,85,61,30.03,29.96,6,0,10,0.27
2013-8-7,79.6,72.1,68.6,75.4,71.0,67.9,99,97,83,30.06,30.00,2,0,3,0.11
2013-8-8,81.8,73.0,69.0,76.2,71.5,68.6,100,96,81,30.04,29.99,5,0,5,0.13
2013-8-9,85.9,76.1,69.4,79.7,73.0,69.0,100,91,70,30.02,29.94,7,0,9,0.24
2013-8-10,86.8,78.6,71.5,75.4,72.3,70.0,96,82,62,30.07,30.00,9,0,12,0.00
2013-8-11,87.2,76.1,70.0,75.8,71.7,69.3,99,88,62,30.10,30.00,6,0,7,0.17
2013-8-12,87.0,76.3,69.5,76.4,71.1,68.5,99,85,59,30.06,29.94,6,0,7,0.06
2013-8-13,80.3,72.7,67.6,75.1,69.3,63.9,98,89,77,29.95,29.79,8,0,10,0.10
2013-8-14,76.0,67.2,57.0,65.8,57.6,51.2,93,74,45,30.14,29.87,5,0,7,0.00
2013-8-15,76.4,62.3,49.9,61.2,55.4,48.9,99,80,50,30.21,30.10,4,0,6,0.00
2013-8-16,75.5,62.5,50.7,62.8,56.7,49.9,99,83,54,30.22,30.13,5,0,5,0.00
2013-8-17,61.9,56.2,54.0,61.4,55.6,53.3,99,98,96,30.25,30.20,2,0,2,0.00
2013-9-7,81.4,80.5,79.7,66.8,65.6,64.4,64,61,59,30.05,30.02,3,0,3,0.00
2013-9-16,68.2,68.1,67.9,58.9,58.7,58.4,73,72,71,30.16,30.15,1,0,1,0.00
2013-10-20,62.1,36.9,41.4,99.9,58.6,38.0,95,54,42,30.15,0.00,3,-282,4,0.00
2013-10-21,66.2,49.1,35.6,54.6,44.8,34.8,99,87,57,30.21,30.00,3,0,4,0.00
2013-10-22,66.1,56.3,47.9,51.9,49.5,46.8,98,80,55,30.01,29.82,9,0,11,0.00
2013-10-23,57.7,49.1,43.1,50.2,41.9,32.0,99,78,53,30.03,29.72,12,1,15,0.00
2013-10-24,48.9,42.7,34.1,35.5,33.3,31.0,89,70,55,30.24,30.02,8,1,11,0.00
2013-10-25,48.9,39.6,32.0,33.6,30.1,26.7,89,70,45,30.42,30.23,11,1,13,0.00
2013-10-26,57.5,42.9,27.3,37.0,29.3,23.6,95,64,28,30.41,30.06,9,1,11,0.00
2013-10-27,64.1,53.0,43.0,44.1,39.7,35.3,90,62,39,30.14,30.04,11,0,13,0.00
2013-10-28,62.0,50.2,39.2,53.5,46.4,37.8,98,87,68,30.30,30.14,6,0,6,0.00
2013-10-29,67.7,58.6,51.4,56.2,53.2,50.5,99,84,58,30.38,30.26,7,0,7,0.00
2013-10-30,70.8,59.6,53.0,61.4,56.2,51.4,98,89,69,30.31,30.14,8,0,9,0.07
2013-10-31,70.0,62.3,56.5,61.8,57.8,55.2,99,86,63,30.19,29.79,13,0,15,0.00
2013-11-1,74.8,67.0,55.4,62.2,55.6,45.5,94,69,38,29.80,29.61,15,1,19,0.06
2013-11-2,65.1,57.1,50.1,49.1,41.2,33.1,81,57,36,29.98,29.69,12,1,14,0.00
2013-11-3,56.0,48.5,35.8,39.0,36.0,32.6,89,63,43,30.43,29.98,7,1,9,0.00
2013-11-4,50.1,41.0,29.9,33.7,31.0,27.5,96,70,48,30.64,30.43,5,0,7,0.00
2013-11-5,51.7,44.1,32.9,43.4,35.0,27.4,85,71,53,30.66,30.51,3,0,3,0.00
2013-11-6,67.0,54.5,47.0,53.5,48.1,43.2,94,81,59,30.51,30.12,3,0,5,0.00
2013-11-7,59.6,49.5,42.4,55.2,42.0,28.0,98,77,54,30.18,29.98,11,2,15,0.01
2013-11-8,49.2,41.6,30.8,30.8,27.4,24.4,83,58,39,30.38,30.18,13,1,13,0.00
2013-11-9,57.2,42.4,27.2,33.5,28.7,24.8,92,62,37,30.42,30.16,14,0,14,0.00
2013-11-10,63.1,53.5,41.4,38.9,31.2,23.9,60,44,23,30.31,30.08,21,2,21,0.00
2013-11-11,60.2,47.2,35.5,32.9,29.2,25.9,73,51,31,30.36,30.12,8,0,9,0.00
2013-11-12,53.2,43.3,30.2,38.8,25.5,16.4,63,50,35,30.50,30.03,11,2,14,0.00
2013-11-13,42.9,34.4,26.5,21.3,17.5,14.6,70,51,32,30.60,30.48,9,1,12,0.00
2013-11-14,57.7,42.7,29.8,24.8,19.5,13.1,62,41,21,30.50,30.32,10,1,12,0.00
2013-11-15,60.8,47.3,33.2,50.2,31.7,21.5,97,58,26,30.35,30.21,8,0,8,0.05
2013-11-16,54.2,50.8,47.4,52.3,49.9,46.8,99,97,92,30.32,30.24,2,0,2,0.00
2013-11-17,61.4,56.5,52.5,58.0,55.2,52.1,100,96,87,30.25,29.82,3,0,5,0.04
2013-11-18,62.7,57.2,48.0,58.8,39.7,28.0,99,55,31,30.03,29.78,15,2,15,0.01
2013-11-19,49.3,42.8,37.0,31.5,28.4,25.6,76,57,41,30.37,30.01,9,1,12,0.00
2013-11-20,46.8,37.9,30.4,30.8,27.9,25.9,87,68,44,30.55,30.37,4,0,5,0.00
2013-11-21,50.9,44.5,39.2,42.3,37.5,29.1,83,76,66,30.58,30.45,3,0,4,0.00
2013-11-22,66.0,55.8,44.8,57.1,49.5,41.4,89,80,69,30.45,30.09,8,0,9,0.00
2013-11-23,59.2,47.1,32.9,52.4,32.8,15.4,79,59,32,30.28,30.10,13,2,19,0.00
2013-11-24,33.0,26.8,21.3,19.3,7.7,1.3,65,45,28,30.61,30.27,18,2,18,0.00
2013-11-25,35.7,28.5,19.3,20.6,13.3,8.7,71,53,39,30.61,30.42,6,0,6,0.00
2013-11-26,42.4,35.0,31.6,41.9,32.9,16.7,99,93,48,30.42,29.68,5,0,6,0.51
2013-11-27,45.2,35.1,26.6,44.2,28.1,14.4,99,76,58,30.22,29.64,18,3,24,0.00
2013-11-28,39.1,29.5,24.9,23.2,19.0,14.4,86,66,44,30.53,30.21,13,1,14,0.00
2013-11-29,46.0,33.7,24.5,27.9,23.7,20.3,87,68,43,30.73,30.51,5,0,7,0.00
2013-11-30,40.2,31.1,23.6,26.9,23.5,19.9,90,74,56,30.74,30.43,3,0,6,0.00
2013-12-1,54.1,35.6,21.8,31.6,26.7,20.0,94,73,37,30.43,30.09,7,0,8,0.00
2013-12-2,52.9,41.9,32.1,39.7,34.9,28.6,91,77,58,30.09,29.89,2,0,2,0.00
2013-12-3,57.2,45.2,35.4,44.0,39.6,33.6,95,82,59,30.02,29.91,3,0,3,0.00
2013-12-4,58.9,50.2,41.0,51.4,46.9,39.9,98,89,75,30.11,30.00,3,0,4,0.00
2013-12-5,64.1,55.9,47.8,59.2,54.1,46.8,99,94,84,30.12,29.98,3,0,3,0.03
2013-12-6,72.6,62.8,49.3,67.3,60.5,47.6,100,93,73,30.07,29.87,8,0,11,0.59
2013-12-7,49.4,42.1,37.6,48.0,37.2,32.1,95,83,70,30.52,30.06,6,1,7,0.00
2013-12-8,38.6,32.2,29.0,34.4,29.7,26.5,97,91,76,30.53,30.32,5,0,8,0.06
2013-12-9,51.4,40.1,31.6,47.9,37.9,30.8,99,92,80,30.33,30.08,9,1,9,0.08
2013-12-10,44.0,37.8,32.3,40.2,32.3,21.0,98,81,62,30.33,30.00,15,2,15,0.17
2013-12-11,46.4,36.6,29.6,26.2,21.7,18.1,70,55,39,30.47,30.30,13,2,13,0.00
2013-12-12,37.6,32.2,28.4,22.5,14.8,7.8,67,49,34,30.47,30.33,10,2,12,0.00
2013-12-13,46.5,36.5,30.2,27.1,19.1,12.1,69,49,36,30.41,30.29,9,1,9,0.00
2013-12-14,40.4,36.0,34.9,35.3,33.6,24.5,98,91,58,30.35,29.80,9,0,9,0.12
2013-12-15,43.9,39.0,35.1,40.1,32.4,27.0,97,77,66,30.08,29.75,13,2,16,0.01
2013-12-16,47.3,38.5,32.8,35.1,30.7,27.3,89,74,57,30.19,30.07,11,1,11,0.00
2013-12-17,55.5,43.4,31.9,38.2,33.6,24.8,91,70,49,30.15,29.93,14,1,15,0.05
2013-12-18,43.4,37.4,31.2,25.2,21.5,17.6,68,53,36,30.30,30.05,12,2,17,0.00
2013-12-19,64.1,49.0,38.1,33.5,25.5,18.3,58,41,26,30.30,30.17,8,1,18,0.00
2013-12-20,59.4,51.1,43.5,40.7,32.9,26.9,69,50,35,30.19,30.08,7,0,10,0.00
2013-12-21,70.2,57.2,42.4,62.1,49.7,38.2,86,77,62,30.11,29.95,9,0,13,0.00
2013-12-22,69.5,62.1,57.2,63.7,59.3,55.7,99,91,70,30.06,29.91,13,0,13,0.28
2013-12-23,58.3,50.4,35.3,57.9,46.2,28.5,99,86,71,30.27,29.96,13,2,13,0.22
2013-12-24,38.9,31.5,21.4,28.9,21.1,9.6,82,66,46,30.54,30.25,13,2,14,0.00
2013-12-25,35.8,24.6,15.8,18.3,14.1,11.4,86,65,37,30.60,30.43,6,0,6,0.00
2013-12-26,46.0,33.4,20.0,28.4,20.8,14.4,86,61,40,30.45,30.31,11,1,14,0.00
2013-12-27,50.1,34.7,23.5,25.8,22.5,20.3,88,64,32,30.52,30.40,9,0,12,0.00
2013-12-28,55.5,40.5,28.0,40.1,27.3,22.3,95,62,31,30.45,30.21,6,0,6,0.06
2013-12-29,51.4,44.3,40.0,45.9,41.2,39.0,99,90,75,30.20,29.71,13,1,13,0.21
2013-12-30,46.4,41.8,34.7,39.3,33.9,28.4,83,74,67,30.19,29.94,9,1,12,0.00
2013-12-31,44.1,38.0,34.3,30.0,23.7,19.1,79,57,37,30.40,30.15,20,2,24,0.00
2014-1-1,50.0,37.2,27.5,29.4,25.2,22.0,84,63,39,30.43,30.16,9,1,10,0.00
2014-1-2,40.2,34.3,28.6,36.3,30.2,20.9,97,85,68,30.16,29.68,14,1,17,0.07